TimeEST,TemperatureF,Dew PointF,Humidity,Sea Level PressureIn,VisibilityMPH,Wind Direction,Wind SpeedMPH,Gust SpeedMPH,PrecipitationIn,Events,Conditions,WindDirDegrees,DateUTC
12:53 AM,32.0,28.9,88,30.22,10.0,Calm,Calm,-,N/A,,Clear,0,2012-11-10 05:53:00
1:53 AM,30.9,28.9,92,30.23,10.0,Calm,Calm,-,N/A,,Clear,0,2012-11-10 06:53:00
2:53 AM,30.0,28.9,96,30.23,10.0,Calm,Calm,-,N/A,,Clear,0,2012-11-10 07:53:00
3:53 AM,28.9,28.0,96,30.25,9.0,Calm,Calm,-,N/A,,Clear,0,2012-11-10 08:53:00
4:53 AM,30.0,28.0,92,30.27,10.0,Calm,Calm,-,N/A,,Clear,0,2012-11-10 09:53:00
5:53 AM,30.9,28.9,92,30.28,10.0,Calm,Calm,-,N/A,,Clear,0,2012-11-10 10:53:00
6:53 AM,30.9,28.9,92,30.30,10.0,Calm,Calm,-,N/A,,Clear,0,2012-11-10 11:53:00
7:53 AM,35.1,32.0,89,30.33,10.0,Calm,Calm,-,N/A,,Clear,0,2012-11-10 12:53:00
8:53 AM,39.9,36.0,86,30.33,10.0,Calm,Calm,-,N/A,,Clear,0,2012-11-10 13:53:00
9:53 AM,48.0,37.0,66,30.33,10.0,Calm,Calm,-,N/A,,Scattered Clouds,0,2012-11-10 14:53:00
10:53 AM,50.0,37.0,61,30.33,10.0,Calm,Calm,-,N/A,,Overcast,0,2012-11-10 15:53:00
11:53 AM,52.0,37.9,59,30.31,10.0,SSE,3.5,-,N/A,,Overcast,150,2012-11-10 16:53:00
12:53 PM,54.0,36.0,51,30.30,10.0,Variable,3.5,-,N/A,,Overcast,0,2012-11-10 17:53:00
1:53 PM,55.0,36.0,49,30.30,10.0,Calm,Calm,-,N/A,,Overcast,0,2012-11-10 18:53:00
2:53 PM,55.0,37.0,51,30.31,10.0,Calm,Calm,-,N/A,,Overcast,0,2012-11-10 19:53:00
3:53 PM,54.0,39.0,57,30.32,10.0,Variable,4.6,-,N/A,,Overcast,0,2012-11-10 20:53:00
4:53 PM,51.1,39.0,63,30.32,10.0,Calm,Calm,-,N/A,,Mostly Cloudy,0,2012-11-10 21:53:00
5:53 PM,48.9,39.9,71,30.35,10.0,Calm,Calm,-,N/A,,Mostly Cloudy,0,2012-11-10 22:53:00
6:53 PM,46.9,39.9,77,30.37,10.0,Calm,Calm,-,N/A,,Scattered Clouds,0,2012-11-10 23:53:00
7:53 PM,43.0,39.0,86,30.38,10.0,Calm,Calm,-,N/A,,Clear,0,2012-11-11 00:53:00
8:53 PM,39.9,37.0,89,30.39,9.0,Calm,Calm,-,N/A,,Clear,0,2012-11-11 01:53:00
9:53 PM,37.9,36.0,93,30.41,8.0,Calm,Calm,-,N/A,,Clear,0,2012-11-11 02:53:00
10:53 PM,37.4,35.6,93,30.41,7.0,Calm,Calm,-,N/A,,Partly Cloudy,0,2012-11-11 03:53:00
11:53 PM,37.9,37.0,97,30.42,8.0,Calm,Calm,-,N/A,,Overcast,0,2012-11-11 04:53:00